This demonstration page uses our WeatherBlox Daily Observations layout. Learn more.

Left ArrowRight Arrow

Hourly Observations for September 4, 2020

Temp ( °F °C ) Dew Point ( °F °C ) Humidity (%) Winds ( mph kmh ) Pressure ( in mb ) Visibility ( mi km ) Precip ( " mm )
12:52 am 00:52 Clear 59 15 48 8.9 67 67 SE 3 6 30.11 1020 10 16 0.00 0.00
1:52 am 01:52 Clear 58 14.4 49 9.4 72 72 SE 3 6 30.11 1020 10 16 0.00 0.00
2:52 am 02:52 Clear 58 14.4 50 10 75 75 Calm 30.11 1020 10 16 0.00 0.00
3:52 am 03:52 Clear 54 12.2 50 10 87 87 Calm 30.11 1020 10 16 0.00 0.00
4:52 am 04:52 Mostly Clear 53 11.7 48 8.9 83 83 Calm 30.12 1020 10 16 0.00 0.00
5:52 am 05:52 Partly Cloudy 54 12.2 50 10 87 87 Calm 30.12 1020 10 16 0.00 0.00
6:52 am 06:52 Mostly Clear 55 12.8 49 9.4 80 80 SSE 5 7 30.14 1021 10 16 0.00 0.00
7:52 am 07:52 Mostly Sunny 56 13.3 50 10 81 81 SE 5 7 30.17 1022 10 16 0.00 0.00
8:52 am 08:52 Partly Cloudy 62 16.7 50 10 65 65 SSE 5 7 30.18 1022 10 16 0.00 0.00
9:52 am 09:52 Partly Cloudy 70 21.1 45 7.2 41 41 SSW 10 17 30.19 1022 10 16 0.00 0.00
10:52 am 10:52 Sunny 75 23.9 45 7.2 34 34 S 12 19 30.19 1022 10 16 0.00 0.00
11:52 am 11:52 Partly Cloudy 79 26.1 45 7.2 30 30 SW 10 17 30.18 1022 10 16 0.00 0.00
12:52 pm 12:52 Mostly Sunny 81 27.2 43 6.1 26 26 S 12 19 30.15 1021 10 16 0.00 0.00
1:52 pm 13:52 Sunny 84 28.9 39 3.9 20 20 S 16 26 30.13 1020 10 16 0.00 0.00
2:52 pm 14:52 Sunny 85 29.4 36 2.2 17 17 SSW 12 19 30.12 1020 10 16 0.00 0.00
3:52 pm 15:52 Sunny 86 30 36 2.2 17 17 SW 14 22 30.10 1019 10 16 0.00 0.00
4:52 pm 16:52 Sunny 87 30.6 39 3.9 18 18 SW 13 20 30.09 1019 10 16 0.00 0.00
5:52 pm 17:52 Sunny 86 30 42 5.6 21 21 SW 12 19 30.08 1019 10 16 0.00 0.00
6:52 pm 18:52 Sunny 85 29.4 44 6.7 24 24 W 8 13 30.08 1019 10 16 0.00 0.00
7:52 pm 19:52 Clear 82 27.8 47 8.3 29 29 SW 5 7 30.09 1019 10 16 0.00 0.00
8:52 pm 20:52 Clear 74 23.3 51 10.6 45 45 SE 5 7 30.12 1020 10 16 0.00 0.00
9:52 pm 21:52 Clear 72 22.2 52 11.1 50 50 SE 3 6 30.14 1021 10 16 0.00 0.00
10:52 pm 22:52 Clear 69 20.6 52 11.1 55 55 Calm 30.16 1021 10 16 0.00 0.00
11:52 pm 23:52 Clear 67 19.4 54 12.2 63 63 Calm 30.18 1022 10 16 0.00 0.00

Powered by AerisWeather